Погода в Боркуме

Германия     53°35′23″N   6°39′49″E
темп.,
°C
ветер,
м/с
пор.,
м/с
влажн.,
%
обл.,
%
осадки,
мм/ч
давл.,
гПа
погр.,
м
2 марта, вт
вт201:00+4в68860 0.0 1034135
04:00+3вюв57880 0.0 1033122
07:00+3в46880 0.0 103397
10:00+4в56820 0.0 1033143
13:00+7в45770 0.0 1032118
16:00+8в34750 0.0 1031137
19:00+7вюв45820 0.0 103029
22:00+6юв34850 0.0 103026
3 марта, ср
ср301:00+6ю33850 0.0 102922
04:00+5юз34840 0.0 102823
07:00+5юз34850 0.0 102725
10:00+6юз34840 0.0 102777
13:00+8з45790 0.0 1027172
16:00+7зсз56820 0.0 1025118
19:00+5зсз45870 0.0 102562
22:00+4сз448741 0.0 102450
4 марта, чт
чт401:00+4ссз459133 0.0 102371
04:00+3ссз579294 0.0 1022273
07:00+3сз579197 0.0 1021182
10:00+4ссз699185 0.0 1020271
13:00+4ссз7107990 0.0 1021452
16:00+3с798899 0.0 1020461
19:00+3ссв9118898 0.1 1021586
22:00+3ссв7977100 0.1 1023561
5 марта, пт
пт501:00+3св587278 0.1 1024567
04:00+2ссв67740 0.0 1024649
07:00+2ссв79660 0.0 1026778
10:00+3ссв45660 0.0 1028961
13:00+3ссв226235 0.0 1029633
16:00+3ссв22617 0.0 1030421
19:00+2св34683 0.0 1031215
22:00+2св34710 0.0 1033232
6 марта, сб
сб601:00+2ссв11720 0.0 103484
04:00+1з33720 0.0 1034222
07:00+1з45730 0.0 1034321
10:00+3з567346 0.0 1035439
13:00+4з567223 0.0 1035397
16:00+4зсз57750 0.0 1034342
19:00+3з58840 0.0 1033255
22:00+3з68860 0.0 1032282